Flag for Germany Weather past 2 weeks in Wismar, Mecklenburg-Western Pomerania, Germany

Now
66 °F

Overcast.


Feels Like: 66 °F
Forecast: 69 / 86 °F
Wind: 2 mph from North

Location: Schwerin

Current Time: Jul 4, 2015 at 3:39:32 AM

Latest Report: Jul 4, 2015 at 2:00 AM


Visibility: 6 mi

Pressure: 30.21 "Hg

Humidity: 84%

Dew point: 61 °F

Location of WismarLocation

Historic Weather in Wismar — Graph

°F

Wismar temperature yesterday

Maximum temperature yesterday: 87 °F (at 3:00 PM)
Minimum temperature yesterday: 66 °F (at 6:00 AM)
Average temperature yesterday: 77 °F

Past Weeks' High & Low Weather Summary

 TemperatureHumidityPressure
High87 °F (Jul 3, 3:00 PM)98% (Jun 22, 4:00 AM)30.28 "Hg (Jun 22, 4:00 AM)
Low47 °F (Jun 21, 4:00 AM)29% (Jul 2, 4:00 PM)29.63 "Hg (Jun 23, 3:00 AM)
Average62 °F71%30.05 "Hg
* Reported Jun 19 2:00 AM — Jul 4 2:00 AM, Wismar, Weather by CustomWeather, © 2015

Note: Actual official high and low records may vary slightly from our data, if they occured in-between our weather recording intervals... More about our weather records

Advertising

Wismar weather history for previous 24 hours

 ConditionsComfort  
Time TempWeatherWind HumidityBarometerVisibility
2:00 AM
Sat, Jul 4
66 °FOvercast.2 mph84%30.21 "Hg6 mi
1:00 AM67 °FPassing clouds.2 mph81%30.22 "Hg6 mi
12:00 AM70 °FPassing clouds.2 mph74%30.23 "Hg8 mi
10:00 PM
Fri, Jul 3
75 °FOvercast.2 mph63%30.24 "Hg11 mi
9:00 PM78 °FOvercast.2 mph61%30.23 "Hg11 mi
8:00 PM81 °FOvercast.2 mph55%30.23 "Hg12 mi
7:00 PM83 °FScattered clouds.3 mph51%30.23 "Hg11 mi
6:00 PM86 °FScattered clouds.3 mph44%30.23 "Hg12 mi
4:00 PM87 °FPassing clouds.2 mph38%30.23 "Hg14 mi
3:00 PM87 °FScattered clouds.1 mph37%30.23 "Hg14 mi
2:00 PM87 °FOvercast.1 mph34%30.23 "Hg16 mi
1:00 PM85 °FOvercast.1 mph40%30.25 "Hg16 mi
12:00 PM82 °FOvercast.5 mph41%30.23 "Hg13 mi
10:00 AM76 °FOvercast.3 mph50%30.28 "Hg16 mi
9:00 AM74 °FPassing clouds.2 mph52%30.28 "Hg16 mi
8:00 AM72 °FPartly sunny.1 mph52%30.27 "Hg17 mi
7:00 AM68 °FPartly sunny.2 mph60%30.26 "Hg13 mi
6:00 AM66 °FScattered clouds.2 mph62%30.27 "Hg18 mi
4:00 AM68 °FPassing clouds.3 mph56%30.24 "Hg19 mi
3:00 AM69 °FOvercast.3 mph54%30.24 "Hg19 mi
Weather by CustomWeather, © 2015

See weather overviewHow to use our weather pages